Location: Fensholt
(55.9856°N, 10.0808°E)
Time: 19:27:45
(UTC+00:00)

DELTA 2 DEB (DPAF) - Pass Details

Date: 07 June 2020
Orbit: 641 x 647 km, 98.3° (Epoch: 05 July)

Event Time Altitude Azimuth Distance (km) Brightness Sun altitude
Exits shadow 00:02:35 - 151° (SSE) 2,230 6.5 -10.7°
Reaches altitude 10° 00:03:02 10° 150° (SSE) 2,047 6.3 -10.7°
Maximum altitude 00:07:27 66° 69° (ENE) 713 4.5 -10.6°
Drops below altitude 10° 00:11:54 10° 348° (NNW) 2,063 7.9 -10.4°
Sets 00:14:08 0° 346° (NNW) 2,978 8.8 -10.4°
